Regional Weather Roundup
Issued by NWS

Home | Current Version | Previous Version | Graphics & Text | Print | Product List | Glossary On
Versions: 1 2 3 4 5 6 7 8 9 10 11 12 13 14 15 16 17 18 19 20 21 22 23 24 25 26 27 28 29 30 31 32 33 34 35 36 37 38 39 40 41 42 43 44 45 46 47 48 49 50
000
ASUS43 KLSX 050907
RWRMO

WEATHER SUMMARY FOR MISSOURI
NATIONAL WEATHER SERVICE SPRINGFIELD MO
400 AM CDT SAT SEP 05 2015

NOTE: "FAIR" INDICATES FEW OR NO CLOUDS BELOW 12,000 FEET WITH NO
       SIGNIFICANT WEATHER AND/OR OBSTRUCTIONS TO VISIBILITY.
       CURRENT SKY AND/OR WEATHER CONDITIONS ARE NOT AVAILABLE FOR
       CHILLICOTHE AND FARMINGTON.

MOZ001>031-035>038-043-044-053-054-051000-
...NORTHERN AND WESTERN MISSOURI...

CITY           SKY/WX    TMP DP  RH WIND       PRES   REMARKS
KANSAS CTY INT CLEAR     74  69  85 S9        29.99S
KANSAS C DTWN  CLEAR     78  69  73 S5        29.98S
LEE`S SUMMIT   CLEAR     76  68  76 S8        30.01S
ST JOSEPH      CLEAR     73  69  87 S6        29.98S
CHILLICOTHE      N/A     71  69  93 CALM      30.02R
KIRKSVILLE     CLEAR     73  68  84 S3        30.04R

$$
MOZ066>068-077>081-088>096-101>105-051000-
...SOUTHWEST MISSOURI...

CITY           SKY/WX    TMP DP  RH WIND       PRES   REMARKS
SPRINGFIELD    CLEAR     74  66  76 SE9       30.04R
JOPLIN         CLEAR     76  68  76 SE8       30.01R

$$
MOZ032>034-039>042-045>050-055>058-069>072-051000-
...CENTRAL MISSOURI...

CITY           SKY/WX    TMP DP  RH WIND       PRES   REMARKS
COLUMBIA       CLEAR     73  69  87 SE6       30.05R
JEFFERSON CITY CLEAR     71  69  93 SE6       30.03R
ROLLA          CLEAR     70  67  90 S5        30.05R
SEDALIA        CLEAR     73  68  84 S6        30.03S
WHITEMAN AFB   CLEAR     74  69  84 S5        30.00S
WARRENSBURG    CLEAR     73  68  83 SE3       30.01R
OSAGE BEACH    CLEAR     72  66  83 SE5       30.04S

$$
MOZ051-052-059>065-051000-
...EAST CENTRAL MISSOURI...

CITY           SKY/WX    TMP DP  RH WIND       PRES   REMARKS
ST LOUIS INTL  CLEAR     78  67  68 SW8       30.04S
SPIRIT OF STL  CLEAR     69  69 100 CALM      30.03S
ST CHARLES     CLEAR     71  70  96 CALM      30.02S FOG

$$
MOZ072>076-082>087-097>100-106>115-051000-
...SOUTH CENTRAL AND SOUTHEAST MISSOURI...

CITY           SKY/WX    TMP DP  RH WIND       PRES   REMARKS
CAPE GIRARDEAU PTCLDY    68  67  96 CALM      30.03S FOG
FARMINGTON     CLEAR     68  66  94 CALM      30.08F
POPLAR BLUFF   CLEAR     70  68  93 N3        30.02S FOG
WEST PLAINS    CLEAR     68  65  90 NE3       30.08S FOG

$$



USA.gov is the U.S. government's official web portal to all federal, state and local government web resources and services.